This is the latest recevied weather packets stored in our database for station/object S54Z-11. If no packets are shown the sender has not sent any weather packets the latest 10 day(s).
| Time | Temp. | Humidity | Pressure | Rain* | Wind** | Luminosity | Snow |
|---|---|---|---|---|---|---|---|
| 1777950582 | 12.22° C | 57% | 1015 hPa | - | - | - | - |
| 1777949682 | 12.78° C | 56% | 1015 hPa | - | - | - | - |
| 1777948781 | 13.33° C | 54% | 1015.1 hPa | - | - | - | - |
| 1777947881 | 12.78° C | 56% | 1015.2 hPa | - | - | - | - |
| 1777946981 | 12.78° C | 55% | 1015.4 hPa | - | - | - | - |
| 1777946081 | 12.78° C | 55% | 1015.4 hPa | - | - | - | - |
| 1777945181 | 13.33° C | 56% | 1015.4 hPa | - | - | - | - |
| 1777944281 | 13.33° C | 56% | 1015.4 hPa | - | - | - | - |
| 1777943381 | 13.33° C | 54% | 1015.5 hPa | - | - | - | - |
| 1777942481 | 13.33° C | 55% | 1015.6 hPa | - | - | - | - |
| 1777941581 | 13.33° C | 54% | 1015.7 hPa | - | - | - | - |
| 1777940681 | 13.89° C | 54% | 1015.8 hPa | - | - | - | - |
| 1777939781 | 13.89° C | 54% | 1016 hPa | - | - | - | - |
| 1777937981 | 13.89° C | 53% | 1016.2 hPa | - | - | - | - |
| 1777937081 | 14.44° C | 52% | 1016.1 hPa | - | - | - | - |
| 1777936180 | 14.44° C | 53% | 1016.3 hPa | - | - | - | - |
| 1777935280 | 14.44° C | 52% | 1016.4 hPa | - | - | - | - |
| 1777934380 | 14.44° C | 52% | 1016.4 hPa | - | - | - | - |
| 1777933480 | 15° C | 51% | 1016.6 hPa | - | - | - | - |
| 1777932584 | 15° C | 51% | 1016.7 hPa | - | - | - | - |
| 1777931680 | 15.56° C | 50% | 1016.7 hPa | - | - | - | - |
| 1777930780 | 15.56° C | 49% | 1016.7 hPa | - | - | - | - |
| 1777929880 | 15.56° C | 49% | 1016.7 hPa | - | - | - | - |
| 1777928980 | 15.56° C | 48% | 1016.9 hPa | - | - | - | - |
| 1777928080 | 16.11° C | 48% | 1017 hPa | - | - | - | - |
* Rain since midnight (hover to see other rain measurements)
** Current wind speed in m/s (hover to see current wind gust speed)